Notices

What's New in latest Release from April 7th, 2021:

- Updated Glossary, including Speed of Maximum Gust, and Total Hourly Precipitation

- Updated national and regional climate services offices contacts and prices information

- Addition of station inventory lists for 1981-2010, 1971-2000, and 1961-1990 Normals.

If you haven't already, please take our survey and provide feedback about our website: https://eccc.sondage-survey.ca/f/LanguageSelection.aspx?s=442ca660-fcf1-47c0-95a9-59707d6fd709

Hourly Data Report for April 07, 2021

CLYDE RIVER A
NUNAVUT
Current Station Operator: NAVCAN

70°29'09.000" N
68°31'01.000" W
26.50 m
2400804
71090
YCY

Download Data

Hourly Data (April 2021)
Hourly Data Report for April 7, 2021
TIME
LST
Temp Definition
°C
Dew Point Definition
°C
Rel Hum Definition
%
Precip. Amount Definition
mm

Wind Dir Definition
10's deg

Wind Spd Definition
km/h
Visibility Definition
km
Stn Press Definition
kPa
Hmdx Definition


Wind Chill Definition


Weather Definition


00:00 -19.7 -22.7 77 0.0 30 8 16.1 103.05   -26 LegendNANA
01:00 -19.7 -22.2 81 0.0 28 8 16.1 103.08   -26 LegendNANA
02:00 -20.2 -21.9 86 0.0   0 16.1 103.08     LegendNANA
03:00 -22.8 -25.3 80 0.0 35 9 16.1 103.08   -30 LegendNANA
04:00 -22.6 -24.7 83 0.0   0 16.1 103.08     LegendNANA
05:00 -20.0 -22.1 84 0.0 LegendMM 4 16.1 103.07   -23 LegendNANA
06:00 -20.2 -22.5 82 0.0   0 16.1 103.07     LegendNANA
07:00 -17.1 -18.9 86 0.0 LegendMM 4 16.1 103.02   -20 LegendNANA
08:00 -16.0 -17.6 88 0.0 14 18 16.1 102.98   -25 LegendNANA
09:00 -14.9 -16.5 88 0.0 13 17 16.1 102.96   -23 LegendNANA
10:00 -13.3 -15.2 86 0.0 14 13 16.1 102.87   -20 LegendNANA
11:00 -13.6 -15.2 88 0.0 13 13 16.1 102.77   -21 LegendNANA
12:00 -13.4 -14.9 89 0.0 13 15 16.1 102.70   -21 LegendNANA
13:00 -12.4 -14.1 87 0.0 10 11 16.1 102.67   -18 Snow
14:00 -12.3 -13.6 90 0.0 10 9 16.1 102.59   -18 Snow
15:00 -12.0 -13.1 92 0.0 13 13 16.1 102.50   -19 Snow
16:00 -12.1 -13.0 93 0.0 11 11 16.1 102.44   -18 Snow
17:00 -12.4 -13.2 94 0.0 8 15 16.1 102.35   -20 Snow
18:00 -13.0 -13.8 94 0.0 5 9 16.1 102.24   -18 Snow
19:00 -13.4 -14.2 94 0.0 5 8 16.1 102.15   -18 Snow
20:00 -13.3 -14.2 93 0.0 2 8 16.1 102.05   -18 Snow
21:00 -13.4 -14.2 94 0.0 35 9 16.1 101.95   -19 Snow
22:00 -12.9 -13.7 94 0.0 35 11 4.0 101.80   -19 Snow
23:00 -12.5 -13.4 93 0.2 32 11 2.4 101.70   -19 Snow

Notes on Data Quality.

Legend

  • E = Estimated
  • M = Missing
  • NA = Not Available*
  • [empty] = Indicates an unobserved value
Date modified: